Regional Weather Roundup
Issued by NWS

Home | Current Version | Previous Version | Graphics & Text | Print | Product List | Glossary On
Versions: 1 2 3 4 5 6 7 8 9 10 11 12 13 14 15 16 17 18 19 20 21 22 23 24 25 26 27 28 29 30 31 32 33 34 35 36 37 38 39 40 41 42 43 44 45 46 47 48 49 50
000
ASUS44 KFWD 280515
RWRTX
NORTH TEXAS HOURLY WEATHER ROUNDUP
NATIONAL WEATHER SERVICE FORT WORTH TX
1200 AM CDT SAT MAR 28 2015

NOTE: "FAIR" INDICATES FEW OR NO CLOUDS BELOW 12,000 FEET WITH NO
SIGNIFICANT WEATHER AND/OR OBSTRUCTIONS TO VISIBILITY.

TXZ118-119-280600-
DALLAS/FORT WORTH METROPLEX

CITY           SKY/WX    TMP DP  RH WIND       PRES   REMARKS
DFW AIRPORT    MOCLDY    52  39  61 E6        30.16S
DALLAS LOVE    CLEAR     55  39  54 E7        30.18R
FTW MEACHAM    CLEAR     55  39  54 E6        30.16S
DAL-EXECUTIVE  CLEAR     53  40  61 E6        30.17S
FTW-ALLIANCE   PTCLDY    51  40  65 CALM      30.16S
FTW-SPINKS     CLEAR     53  42  65 SE5       30.18S
ARLINGTON      CLEAR     56  39  53 E6        30.17S
ADDISON        CLEAR     55  40  57 E6        30.19S
MESQUITE       CLEAR     51  38  61 CALM      30.19S
LANCASTER      CLEAR     47  39  73 CALM      30.19S
$$

TXZ091>094-102>105-117-120-121-131>134-280600-
NORTH CENTRAL TEXAS

CITY           SKY/WX    TMP DP  RH WIND       PRES   REMARKS
SHRMAN/DENISON CLEAR     50  41  71 E6        30.17F
GAINESVILLE    CLEAR     48  39  70 CALM      30.18S
BOWIE          CLEAR     48  41  76 SE3       30.15S
BRIDGEPORT     CLEAR     51  44  77 SE6       30.18S
DECATUR        CLEAR     50  39  67 E8        30.15F
DENTON         CLEAR     52  40  63 SE6       30.16F
MCKINNEY       CLEAR     50  40  68 CALM      30.18S
GREENVILLE     CLEAR     45  39  81 CALM      30.19R
ROCKWALL       CLEAR     49  40  70 E5        30.16F
TERRELL        CLEAR     51  41  68 E3        30.18S
WAXAHACHIE     CLEAR     49  42  75 E3        30.19S
CLEBURNE       CLEAR     54  43  66 E9        30.18R
GRANBURY         N/A     56  44  63 CALM      30.18R
$$

TXZ083>090-098>101-113>116-127>130-139>142-154-155-280600-
WESTERN NORTH TEXAS

CITY           SKY/WX    TMP DP  RH WIND       PRES   REMARKS
WICHITA FALLS  CLEAR     48  41  76 SE8       30.13S
WF-KICKAPOO    CLEAR     52  43  73 SE7       30.15S
VERNON         CLEAR     51  38  62 SE6       30.13F
ABILENE        CLEAR     57  40  52 SE9       30.14S
ABILENE-DYESS  CLEAR     52  42  69 SE3       30.13S
BRECKENRIDGE   CLEAR     57  40  54 SE8       30.13S
GRAHAM         CLEAR     53  43  68 SE3       30.13S
MINERAL WELLS  CLEAR     53  43  68 SE7       30.14R
STEPHENVILLE   CLEAR     56  42  60 SE6       30.17F
COMANCHE       CLEAR     55  44  66 SE6       30.16S
BROWNWOOD      CLEAR     54  39  58 NE3       30.15R
COLEMAN        CLEAR     57  39  50 CALM      30.14S
BRADY          CLEAR     61  34  36 SE7       30.14S
$$

TXZ143>147-156>162-174-175-280600-
CENTRAL TEXAS

CITY           SKY/WX    TMP DP  RH WIND       PRES   REMARKS
WACO           CLEAR     52  43  71 E6        30.16S
WACO-MCGREGOR  CLEAR     57  39  51 CALM      30.17S
HILLSBORO      CLEAR     54  42  63 E13       30.17R
CORSICANA      CLEAR     54  42  64 NE6       30.18R
MEXIA          CLEAR     54  42  64 NE6       30.16S
HEARNE         FAIR      58  43  57 CALM      30.17R
CAMERON        CLEAR     59  44  56 SE3       30.16R
TEMPLE         CLEAR     55  39  54 E6        30.15R
KILLEEN        CLEAR     57  44  62 S6        30.15R
KILLEEN-SKYLRK CLEAR     57  41  54 MISG      30.15R
FORT HOOD      CLEAR     59  43  56 SE2       30.15R
GATESVILLE     CLEAR     55  45  67 CALM      30.18R
HAMILTON       CLEAR     55  42  63 SE8       30.16F
LAMPASAS       CLEAR     54  45  70 CALM      30.16
$$

TXZ095>097-106>112-122>126-135>138-148>153-164>167-280600-
EAST TEXAS

CITY           SKY/WX    TMP DP  RH WIND       PRES   REMARKS
SULPHUR SPRNGS PTCLDY    49  40  70 CALM      30.20S
MOUNT PLEASANT PTCLDY    49  39  69 CALM      30.20S
GILMER         PTCLDY    48  40  72 CALM      30.18S
MINEOLA        CLEAR     46  39  76 CALM      30.20S
TYLER          CLEAR     51  37  58 NE3       30.18S
LONGVIEW       CLEAR     50  38  63 CALM      30.18S
MARSHALL       PTCLDY    48  43  81 CALM      30.20S
ATHENS         CLEAR     52  36  54 CALM      30.17S
PALESTINE      CLEAR     54  38  55 NE6       30.18S
JACKSONVILLE   CLEAR     52  37  55 NE5       30.19F
HENDERSON      CLEAR     47  40  77 CALM      30.19F
NACOGDOCHES    CLEAR     48  39  71 NE3       30.18F
LUFKIN         CLEAR     60  37  42 N8        30.17S
$$

SUPPLEMENTAL OBSERVATIONS (CENTRAL)

CITY           SKY/WX    TMP DP  RH WIND       PRES   REMARKS
LAKE TEXOMA      N/A     48  39  71 E5          N/A
CADDO GRASSLND   N/A     45  39  81 S3          N/A
PAT MAYSE LAKE   N/A     46  41  81 SE2         N/A
GREENVILLE       N/A     48  36  61 SE2         N/A
CEDAR HILL       N/A     54  39  58 E5G14       N/A
LAKE LIMESTONE   N/A     55  41  58 E5          N/A
MCGREGOR         N/A     54  43  66 E3          N/A
TEMPLE           N/A     57  41  54 E6          N/A
$$

SUPPLEMENTAL OBSERVATIONS (WEST)

CITY           SKY/WX    TMP DP  RH WIND       PRES   REMARKS
MILLERS CREEK    N/A     54  41  62 E6          N/A
POSSUM KINGDOM   N/A     54  41  62 E7          N/A
GRANBURY         N/A     55  43  62 SE3         N/A
COMANCHE         N/A     54  36  50 SE8         N/A
HAMBY            N/A     57  37  47 SE10        N/A
IVIE RESERVOIR   N/A     59  36  41 NE1         N/A
COLORADO BEND    N/A     57  39  51 SE7         N/A
$$

SUPPLEMENTAL OBSERVATIONS (EAST)

CITY           SKY/WX    TMP DP  RH WIND       PRES   REMARKS
CLARKSVILLE      N/A     46  41  81 CALM        N/A
TEXARKANA        N/A     41  37  87 CALM        N/A
LINDEN           N/A     46  37  71 CALM        N/A
CADDO LAKE       N/A     43  39  87 CALM        N/A
GILMER           N/A     46  39  76 CALM        N/A
HENDERSON        N/A     46  37  71 NE2         N/A
LUFKIN           N/A     57  34  41 MISG        N/A
S SABINE NF      N/A     48  41  76 CALM        N/A
$$

SUPPLEMENTAL OBSERVATIONS ARE A COLLECTION OF AUTOMATED INSTRUMENTS
THAT ARE MAINTAINED BY A VARIETY OF FEDERAL AND STATE AGENCIES.
CERTAIN ELEMENTS...SUCH AS HUMIDITY VALUES AND SUSTAINED WIND
SPEEDS...MAY BE APPROXIMATED.



USA.gov is the U.S. government's official web portal to all federal, state and local government web resources and services.